Time,TemperatureF,DewpointF,PressureIn,WindDirection,WindDirectionDegrees,WindSpeedMPH,WindSpeedGustMPH,Humidity,HourlyPrecipIn,Conditions,Clouds,dailyrainin,SoftwareType,DateUTC
2013-02-02 00:00:00,9.9,-2.7,30.16,South,173,5.4,6.3,56,0.00,,---,0.00,VWS V14.01,2013-02-02 05:00:00,
2013-02-02 00:01:00,9.9,-2.7,30.16,SE,146,5.4,8.1,56,0.00,,---,0.00,VWS V14.01,2013-02-02 05:01:00,
2013-02-02 00:06:00,10.0,-2.5,30.16,SSE,151,8.1,11.6,56,0.00,,---,0.00,VWS V14.01,2013-02-02 05:06:00,
2013-02-02 00:11:00,10.2,-2.3,30.16,South,188,5.4,9.8,56,0.00,,---,0.00,VWS V14.01,2013-02-02 05:11:00,
2013-02-02 00:16:00,10.2,-2.3,30.16,South,173,6.3,7.2,56,0.00,,---,0.00,VWS V14.01,2013-02-02 05:16:00,
2013-02-02 00:21:00,10.4,-2.2,30.16,South,180,10.7,11.6,56,0.00,,---,0.00,VWS V14.01,2013-02-02 05:21:00,
2013-02-02 00:26:00,10.6,-2.0,30.16,South,183,5.4,5.4,56,0.00,,---,0.00,VWS V14.01,2013-02-02 05:26:00,
2013-02-02 00:31:00,10.8,-1.8,30.16,SSW,209,7.2,7.2,56,0.00,,---,0.00,VWS V14.01,2013-02-02 05:31:00,
2013-02-02 00:36:00,10.9,-1.7,30.16,South,183,10.7,10.7,56,0.00,,---,0.00,VWS V14.01,2013-02-02 05:36:00,
2013-02-02 00:41:00,10.9,-1.7,30.16,South,177,7.2,7.2,56,0.00,,---,0.00,VWS V14.01,2013-02-02 05:41:00,
2013-02-02 00:46:00,10.9,-1.7,30.16,SSW,192,8.9,10.7,56,0.00,,---,0.00,VWS V14.01,2013-02-02 05:46:00,
2013-02-02 00:52:00,11.1,-1.5,30.16,SSE,168,6.3,6.3,56,0.00,,---,0.00,VWS V14.01,2013-02-02 05:52:00,
2013-02-02 00:57:00,11.1,-1.5,30.16,SSW,213,7.2,8.1,56,0.00,,---,0.00,VWS V14.01,2013-02-02 05:57:00,
2013-02-02 01:02:00,11.1,-1.5,30.16,SSE,152,8.1,12.5,56,0.00,,---,0.00,VWS V14.01,2013-02-02 06:02:00,
2013-02-02 01:07:00,11.1,-1.5,30.16,SSW,203,10.7,10.7,56,0.00,,---,0.00,VWS V14.01,2013-02-02 06:07:00,
2013-02-02 01:12:00,11.1,-1.5,30.16,SW,224,16.1,16.1,56,0.00,,---,0.00,VWS V14.01,2013-02-02 06:12:00,
2013-02-02 01:17:00,11.1,-1.5,30.16,SSW,202,9.8,10.7,56,0.00,,---,0.00,VWS V14.01,2013-02-02 06:17:00,
2013-02-02 01:22:00,11.3,-1.3,30.16,South,187,12.5,17.4,56,0.00,,---,0.00,VWS V14.01,2013-02-02 06:22:00,
2013-02-02 01:27:00,11.3,-1.3,30.16,SW,227,7.2,11.6,56,0.00,,---,0.00,VWS V14.01,2013-02-02 06:27:00,
2013-02-02 01:32:00,11.3,-1.3,30.16,SW,218,10.7,12.5,56,0.00,,---,0.00,VWS V14.01,2013-02-02 06:32:00,
2013-02-02 01:37:00,11.5,-1.2,30.14,SW,218,11.6,11.6,56,0.00,,---,0.00,VWS V14.01,2013-02-02 06:37:00,
2013-02-02 01:42:00,11.5,-1.2,30.14,SW,221,12.5,12.5,56,0.00,,---,0.00,VWS V14.01,2013-02-02 06:42:00,
2013-02-02 01:47:00,11.5,-1.2,30.14,SSW,199,5.4,7.2,56,0.00,,---,0.00,VWS V14.01,2013-02-02 06:47:00,
2013-02-02 01:52:00,11.5,-1.2,30.14,WSW,253,11.6,11.6,56,0.00,,---,0.00,VWS V14.01,2013-02-02 06:52:00,
2013-02-02 01:57:00,11.5,-1.2,30.14,SW,236,12.5,12.5,56,0.00,,---,0.00,VWS V14.01,2013-02-02 06:57:00,
2013-02-02 02:02:00,11.7,-1.0,30.14,SW,219,10.7,11.6,56,0.00,,---,0.00,VWS V14.01,2013-02-02 07:02:00,
2013-02-02 02:07:00,11.7,-1.0,30.14,WNW,286,7.2,11.6,56,0.00,,---,0.00,VWS V14.01,2013-02-02 07:07:00,
2013-02-02 02:12:00,11.8,-0.8,30.14,SSW,202,10.7,10.7,56,0.00,,---,0.00,VWS V14.01,2013-02-02 07:12:00,
2013-02-02 02:17:00,12.0,-0.6,30.14,SW,230,13.4,13.4,56,0.00,,---,0.00,VWS V14.01,2013-02-02 07:17:00,
2013-02-02 02:23:00,12.2,-0.5,30.14,SW,235,6.3,10.7,56,0.00,,---,0.00,VWS V14.01,2013-02-02 07:23:00,
2013-02-02 02:28:00,12.2,-0.5,30.14,South,179,5.4,10.7,56,0.00,,---,0.00,VWS V14.01,2013-02-02 07:28:00,
2013-02-02 02:33:00,12.4,-0.3,30.14,SSW,206,7.2,7.2,56,0.00,,---,0.00,VWS V14.01,2013-02-02 07:33:00,
2013-02-02 02:38:00,12.4,-0.3,30.14,SW,228,11.6,11.6,56,0.00,,---,0.00,VWS V14.01,2013-02-02 07:38:00,
2013-02-02 02:43:00,12.4,-0.3,30.14,SSW,208,4.5,8.1,56,0.00,,---,0.00,VWS V14.01,2013-02-02 07:43:00,
2013-02-02 02:48:00,12.4,-0.3,30.14,SW,229,20.1,20.1,56,0.00,,---,0.00,VWS V14.01,2013-02-02 07:48:00,
2013-02-02 02:53:00,12.4,-0.3,30.14,South,190,8.1,12.5,56,0.00,,---,0.00,VWS V14.01,2013-02-02 07:53:00,
2013-02-02 02:58:00,12.4,-0.3,30.14,South,174,11.6,12.5,56,0.00,,---,0.00,VWS V14.01,2013-02-02 07:58:00,
2013-02-02 03:05:00,12.4,-0.3,30.14,WSW,246,15.2,15.2,56,0.00,,---,0.00,VWS V14.01,2013-02-02 08:05:00,
2013-02-02 03:10:00,12.4,-0.3,30.14,SW,221,14.3,15.2,56,0.00,,---,0.00,VWS V14.01,2013-02-02 08:10:00,
2013-02-02 03:16:00,12.4,-0.3,30.14,SW,219,12.5,16.6,56,0.00,,---,0.00,VWS V14.01,2013-02-02 08:16:00,
2013-02-02 03:21:00,12.4,-0.3,30.14,SW,214,8.1,11.6,56,0.00,,---,0.00,VWS V14.01,2013-02-02 08:21:00,
2013-02-02 03:26:00,12.4,-0.3,30.14,SSW,206,10.7,11.6,56,0.00,,---,0.00,VWS V14.01,2013-02-02 08:26:00,
2013-02-02 03:31:00,12.2,-0.5,30.14,South,183,12.5,12.5,56,0.00,,---,0.00,VWS V14.01,2013-02-02 08:31:00,
2013-02-02 03:36:00,12.2,-0.5,30.14,South,171,7.2,7.2,56,0.00,,---,0.00,VWS V14.01,2013-02-02 08:36:00,
2013-02-02 03:41:00,12.2,-0.5,30.11,South,186,6.3,8.9,56,0.00,,---,0.00,VWS V14.01,2013-02-02 08:41:00,
2013-02-02 03:46:00,12.2,-0.5,30.11,WSW,242,10.7,12.5,56,0.00,,---,0.00,VWS V14.01,2013-02-02 08:46:00,
2013-02-02 03:51:00,12.2,-0.5,30.11,SSW,198,16.6,16.6,56,0.00,,---,0.00,VWS V14.01,2013-02-02 08:51:00,
2013-02-02 03:56:00,12.4,-0.3,30.11,SSW,197,7.2,11.6,56,0.00,,---,0.00,VWS V14.01,2013-02-02 08:56:00,
2013-02-02 04:02:00,12.4,-0.3,30.11,SW,226,11.6,16.6,56,0.00,,---,0.00,VWS V14.01,2013-02-02 09:02:00,
2013-02-02 04:07:00,12.6,-0.2,30.11,SSE,150,6.3,7.2,56,0.00,,---,0.00,VWS V14.01,2013-02-02 09:07:00,
2013-02-02 04:12:00,12.6,-0.2,30.11,SSW,205,10.7,10.7,56,0.00,,---,0.00,VWS V14.01,2013-02-02 09:12:00,
2013-02-02 04:17:00,12.6,-0.2,30.11,SSW,199,11.6,11.6,56,0.00,,---,0.00,VWS V14.01,2013-02-02 09:17:00,
2013-02-02 04:22:00,12.6,-0.2,30.11,SSW,202,7.2,8.1,56,0.00,,---,0.00,VWS V14.01,2013-02-02 09:22:00,
2013-02-02 04:27:00,12.6,-0.2,30.11,SW,228,10.7,11.6,56,0.00,,---,0.00,VWS V14.01,2013-02-02 09:27:00,
2013-02-02 04:32:00,12.6,-0.2,30.11,SSW,195,6.3,6.3,56,0.00,,---,0.00,VWS V14.01,2013-02-02 09:32:00,
2013-02-02 04:37:00,12.7,0.0,30.08,SW,221,8.1,8.1,56,0.00,,---,0.00,VWS V14.01,2013-02-02 09:37:00,
2013-02-02 04:42:00,12.7,0.0,30.08,South,175,7.2,7.2,56,0.00,,---,0.00,VWS V14.01,2013-02-02 09:42:00,
2013-02-02 04:47:00,12.7,0.0,30.08,South,177,5.4,10.7,56,0.00,,---,0.00,VWS V14.01,2013-02-02 09:47:00,
2013-02-02 04:52:00,12.7,0.0,30.08,SSW,212,8.1,10.7,56,0.00,,---,0.00,VWS V14.01,2013-02-02 09:52:00,
2013-02-02 04:57:00,12.9,0.2,30.08,SW,221,8.1,9.8,56,0.00,,---,0.00,VWS V14.01,2013-02-02 09:57:00,
2013-02-02 05:03:00,12.9,0.2,30.08,SSW,195,8.1,8.1,56,0.00,,---,0.00,VWS V14.01,2013-02-02 10:03:00,
2013-02-02 05:08:00,12.9,0.2,30.08,SE,142,10.7,10.7,56,0.00,,---,0.00,VWS V14.01,2013-02-02 10:08:00,
2013-02-02 05:13:00,12.9,0.2,30.08,SW,215,5.4,10.7,56,0.00,,---,0.00,VWS V14.01,2013-02-02 10:13:00,
2013-02-02 05:18:00,12.9,0.2,30.08,SW,221,7.2,8.1,56,0.00,,---,0.00,VWS V14.01,2013-02-02 10:18:00,
2013-02-02 05:23:00,12.7,0.0,30.08,SSE,152,12.5,12.5,56,0.00,,---,0.00,VWS V14.01,2013-02-02 10:23:00,
2013-02-02 05:28:00,12.7,0.0,30.08,SSW,194,16.1,16.1,56,0.00,,---,0.00,VWS V14.01,2013-02-02 10:28:00,
2013-02-02 05:33:00,12.7,0.0,30.08,SSW,193,6.3,6.3,56,0.00,,---,0.00,VWS V14.01,2013-02-02 10:33:00,
2013-02-02 05:38:00,12.7,0.0,30.05,SSW,194,8.1,10.7,56,0.00,,---,0.00,VWS V14.01,2013-02-02 10:38:00,
2013-02-02 05:43:00,12.9,0.2,30.05,South,183,16.6,16.6,56,0.00,,---,0.00,VWS V14.01,2013-02-02 10:43:00,
2013-02-02 05:48:00,12.9,0.2,30.05,SSE,165,11.6,11.6,56,0.00,,---,0.00,VWS V14.01,2013-02-02 10:48:00,
2013-02-02 05:54:00,12.9,0.2,30.05,SSE,159,5.4,10.7,56,0.00,,---,0.00,VWS V14.01,2013-02-02 10:54:00,
2013-02-02 05:58:00,12.9,0.2,30.05,South,173,6.3,10.7,56,0.00,,---,0.00,VWS V14.01,2013-02-02 10:58:00,
2013-02-02 06:04:00,12.9,0.2,30.05,SSE,158,8.1,9.8,56,0.00,,---,0.00,VWS V14.01,2013-02-02 11:04:00,
2013-02-02 06:09:00,12.9,0.2,30.05,SSW,210,6.3,10.7,56,0.00,,---,0.00,VWS V14.01,2013-02-02 11:09:00,
2013-02-02 06:14:00,13.1,0.4,30.05,South,183,5.4,10.7,56,0.00,,---,0.00,VWS V14.01,2013-02-02 11:14:00,
2013-02-02 06:19:00,13.1,0.4,30.05,SSW,205,8.1,12.5,56,0.00,,---,0.00,VWS V14.01,2013-02-02 11:19:00,
2013-02-02 06:24:00,13.1,0.4,30.05,SSW,194,12.5,12.5,56,0.00,,---,0.00,VWS V14.01,2013-02-02 11:24:00,
2013-02-02 06:29:00,13.3,0.5,30.05,SSE,155,6.3,8.1,56,0.00,,---,0.00,VWS V14.01,2013-02-02 11:29:00,
2013-02-02 06:34:00,13.3,0.5,30.05,SE,139,7.2,8.1,56,0.00,,---,0.00,VWS V14.01,2013-02-02 11:34:00,
2013-02-02 06:39:00,13.3,0.5,30.05,SSW,195,8.1,8.1,56,0.00,,---,0.00,VWS V14.01,2013-02-02 11:39:00,
2013-02-02 06:44:00,13.5,0.7,30.05,SSE,152,11.6,12.5,56,0.00,,---,0.00,VWS V14.01,2013-02-02 11:44:00,
2013-02-02 06:49:00,13.5,0.7,30.05,South,181,8.1,8.1,56,0.00,,---,0.00,VWS V14.01,2013-02-02 11:49:00,
2013-02-02 06:55:00,13.5,0.7,30.05,SSW,196,5.4,6.3,56,0.00,,---,0.00,VWS V14.01,2013-02-02 11:55:00,
2013-02-02 07:00:00,13.5,0.7,30.05,South,189,5.4,6.3,56,0.00,,---,0.00,VWS V14.01,2013-02-02 12:00:00,
2013-02-02 07:05:00,13.6,0.9,30.05,South,185,7.2,7.2,56,0.00,,---,0.00,VWS V14.01,2013-02-02 12:05:00,
2013-02-02 07:10:00,13.6,0.9,30.05,SSW,208,10.7,11.6,56,0.00,,---,0.00,VWS V14.01,2013-02-02 12:10:00,
2013-02-02 07:15:00,13.8,1.0,30.05,SSE,163,5.4,7.2,56,0.00,,---,0.00,VWS V14.01,2013-02-02 12:15:00,
2013-02-02 07:20:00,13.8,1.0,30.05,South,186,7.2,11.6,56,0.00,,---,0.00,VWS V14.01,2013-02-02 12:20:00,
2013-02-02 07:25:00,13.8,1.0,30.05,South,187,7.2,8.1,56,0.00,,---,0.00,VWS V14.01,2013-02-02 12:25:00,
2013-02-02 07:30:00,13.8,1.0,30.05,South,188,6.3,8.1,56,0.00,,---,0.00,VWS V14.01,2013-02-02 12:30:00,
2013-02-02 07:35:00,13.8,1.0,30.05,SSW,199,7.2,12.5,56,0.00,,---,0.00,VWS V14.01,2013-02-02 12:35:00,
2013-02-02 07:40:00,13.8,1.0,30.02,SSW,192,6.3,6.3,56,0.00,,---,0.00,VWS V14.01,2013-02-02 12:40:00,
2013-02-02 07:46:00,13.8,1.0,30.02,SE,139,8.1,12.5,56,0.00,,---,0.00,VWS V14.01,2013-02-02 12:46:00,
2013-02-02 07:51:00,14.0,7.8,30.02,SSE,162,8.1,9.8,76,0.00,,---,0.00,VWS V14.01,2013-02-02 12:51:00,
2013-02-02 07:56:00,14.0,7.8,30.02,South,177,9.8,12.5,76,0.00,,---,0.00,VWS V14.01,2013-02-02 12:56:00,
2013-02-02 08:01:00,14.2,8.0,30.02,South,174,8.1,12.5,76,0.00,,---,0.00,VWS V14.01,2013-02-02 13:01:00,
2013-02-02 08:06:00,14.2,8.0,30.02,SSW,200,7.2,7.2,76,0.00,,---,0.00,VWS V14.01,2013-02-02 13:06:00,
2013-02-02 08:11:00,14.2,8.3,30.02,SE,144,7.2,7.2,77,0.00,,---,0.00,VWS V14.01,2013-02-02 13:11:00,
2013-02-02 08:16:00,14.2,8.3,30.02,South,186,9.8,11.6,77,0.00,,---,0.00,VWS V14.01,2013-02-02 13:16:00,
2013-02-02 08:21:00,14.4,8.5,30.02,South,174,5.4,5.4,77,0.00,,---,0.00,VWS V14.01,2013-02-02 13:21:00,
2013-02-02 08:26:00,14.4,8.5,30.02,South,170,7.2,10.7,77,0.00,,---,0.00,VWS V14.01,2013-02-02 13:26:00,
2013-02-02 08:31:00,14.5,8.7,30.02,South,191,10.7,10.7,77,0.00,,---,0.00,VWS V14.01,2013-02-02 13:31:00,
2013-02-02 08:37:00,14.5,8.9,30.02,SSW,200,4.5,10.7,78,0.00,,---,0.00,VWS V14.01,2013-02-02 13:37:00,
2013-02-02 08:42:00,14.7,9.1,30.02,SSW,211,6.3,7.2,78,0.00,,---,0.00,VWS V14.01,2013-02-02 13:42:00,
2013-02-02 08:47:00,14.9,9.3,30.02,South,182,6.3,8.1,78,0.00,,---,0.00,VWS V14.01,2013-02-02 13:47:00,
2013-02-02 08:52:00,14.9,9.3,30.02,South,175,6.3,15.2,78,0.00,,---,0.00,VWS V14.01,2013-02-02 13:52:00,
2013-02-02 08:57:00,15.1,9.8,30.02,South,176,21.0,21.0,79,0.00,,---,0.00,VWS V14.01,2013-02-02 13:57:00,
2013-02-02 09:02:00,15.1,9.8,30.02,SSE,147,7.2,10.7,79,0.00,,---,0.00,VWS V14.01,2013-02-02 14:02:00,
2013-02-02 09:07:00,15.3,9.9,30.02,South,173,9.8,9.8,79,0.00,,---,0.00,VWS V14.01,2013-02-02 14:07:00,
2013-02-02 09:12:00,15.3,9.9,30.02,South,176,6.3,12.5,79,0.00,,---,0.00,VWS V14.01,2013-02-02 14:12:00,
2013-02-02 09:17:00,15.4,10.1,30.02,South,181,8.1,8.1,79,0.00,,---,0.00,VWS V14.01,2013-02-02 14:17:00,
2013-02-02 09:22:00,15.6,10.3,30.02,SSE,147,6.3,6.3,79,0.00,,---,0.00,VWS V14.01,2013-02-02 14:22:00,
2013-02-02 09:27:00,15.8,10.5,30.02,SSW,196,11.6,11.6,79,0.00,,---,0.00,VWS V14.01,2013-02-02 14:27:00,
2013-02-02 09:32:00,15.8,10.5,30.02,SSE,160,9.8,9.8,79,0.00,,---,0.00,VWS V14.01,2013-02-02 14:32:00,
2013-02-02 09:37:00,16.0,10.6,29.99,SSW,199,5.4,7.2,79,0.00,,---,0.00,VWS V14.01,2013-02-02 14:37:00,
2013-02-02 09:42:00,16.2,10.8,29.99,SE,145,10.7,10.7,79,0.00,,---,0.00,VWS V14.01,2013-02-02 14:42:00,
2013-02-02 09:47:00,16.5,11.4,29.99,SSE,167,11.6,11.6,80,0.00,,---,0.00,VWS V14.01,2013-02-02 14:47:00,
2013-02-02 09:52:00,16.5,11.4,29.99,South,172,6.3,9.8,80,0.00,,---,0.00,VWS V14.01,2013-02-02 14:52:00,
2013-02-02 09:57:00,16.7,11.6,29.99,SW,225,6.3,7.2,80,0.00,,---,0.00,VWS V14.01,2013-02-02 14:57:00,
2013-02-02 10:03:00,16.9,11.8,29.99,SSW,197,11.6,16.6,80,0.00,,---,0.00,VWS V14.01,2013-02-02 15:03:00,
2013-02-02 10:08:00,16.9,11.8,29.99,SSE,166,8.1,11.6,80,0.00,,---,0.00,VWS V14.01,2013-02-02 15:08:00,
2013-02-02 10:13:00,16.9,11.8,29.99,SSE,152,12.5,12.5,80,0.00,,---,0.00,VWS V14.01,2013-02-02 15:13:00,
2013-02-02 10:18:00,17.1,12.0,29.99,South,175,10.7,12.5,80,0.00,,---,0.00,VWS V14.01,2013-02-02 15:18:00,
2013-02-02 10:23:00,17.2,12.1,29.99,SW,217,8.1,8.1,80,0.00,,---,0.00,VWS V14.01,2013-02-02 15:23:00,
2013-02-02 10:28:00,17.4,12.3,29.99,South,187,15.2,15.2,80,0.00,,---,0.00,VWS V14.01,2013-02-02 15:28:00,
2013-02-02 10:33:00,17.4,12.3,29.99,SW,220,6.3,6.3,80,0.00,,---,0.00,VWS V14.01,2013-02-02 15:33:00,
2013-02-02 10:38:00,17.4,12.3,29.99,South,182,8.9,13.4,80,0.00,,---,0.00,VWS V14.01,2013-02-02 15:38:00,
2013-02-02 10:43:00,17.4,12.3,29.99,SW,215,7.2,7.2,80,0.00,,---,0.00,VWS V14.01,2013-02-02 15:43:00,
2013-02-02 10:48:00,17.6,12.5,29.99,SSW,210,11.6,12.5,80,0.00,,---,0.00,VWS V14.01,2013-02-02 15:48:00,
2013-02-02 10:53:00,17.8,12.4,29.99,SW,223,10.7,11.6,79,0.00,,---,0.00,VWS V14.01,2013-02-02 15:53:00,
2013-02-02 10:58:00,17.8,12.4,29.99,SSW,212,0.0,0.0,79,0.00,,---,0.00,VWS V14.01,2013-02-02 15:58:00,
2013-02-02 11:03:00,18.1,12.7,29.99,South,180,8.1,10.7,79,0.00,,---,0.00,VWS V14.01,2013-02-02 16:03:00,
2013-02-02 11:08:00,18.3,12.9,29.96,SSE,158,5.4,5.4,79,0.00,,---,0.00,VWS V14.01,2013-02-02 16:08:00,
2013-02-02 11:13:00,18.3,12.9,29.96,WNW,303,9.8,9.8,79,0.00,,---,0.00,VWS V14.01,2013-02-02 16:13:00,
2013-02-02 11:18:00,18.5,13.1,29.96,SSE,168,6.3,6.3,79,0.00,,---,0.00,VWS V14.01,2013-02-02 16:18:00,
2013-02-02 11:23:00,18.7,13.3,29.96,West,269,12.5,12.5,79,0.00,,---,0.00,VWS V14.01,2013-02-02 16:23:00,
2013-02-02 11:28:00,18.9,13.4,29.96,South,187,11.6,11.6,79,0.00,,---,0.00,VWS V14.01,2013-02-02 16:28:00,
2013-02-02 11:33:00,19.0,13.6,29.96,SW,226,8.1,8.1,79,0.00,,---,0.00,VWS V14.01,2013-02-02 16:33:00,
2013-02-02 11:38:00,19.0,13.6,29.96,SSW,192,7.2,11.6,79,0.00,,---,0.00,VWS V14.01,2013-02-02 16:38:00,
2013-02-02 11:44:00,19.2,13.8,29.96,SSW,208,8.1,9.8,79,0.00,,---,0.00,VWS V14.01,2013-02-02 16:44:00,
2013-02-02 11:49:00,19.4,14.0,29.96,SSW,196,0.0,0.0,79,0.00,,---,0.00,VWS V14.01,2013-02-02 16:49:00,
2013-02-02 11:54:00,19.6,13.9,29.96,SW,214,6.3,8.1,78,0.00,,---,0.00,VWS V14.01,2013-02-02 16:54:00,
2013-02-02 11:59:00,19.4,13.7,29.96,South,173,6.3,9.8,78,0.00,,---,0.00,VWS V14.01,2013-02-02 16:59:00,
2013-02-02 12:04:00,19.4,13.7,29.96,South,174,9.8,9.8,78,0.00,,---,0.00,VWS V14.01,2013-02-02 17:04:00,
2013-02-02 12:09:00,19.4,13.7,29.96,South,183,8.1,10.7,78,0.00,,---,0.00,VWS V14.01,2013-02-02 17:09:00,
2013-02-02 12:14:00,19.6,13.9,29.96,SW,233,9.8,9.8,78,0.00,,---,0.00,VWS V14.01,2013-02-02 17:14:00,
2013-02-02 12:19:00,19.6,13.9,29.96,SE,133,8.1,8.1,78,0.00,,---,0.00,VWS V14.01,2013-02-02 17:19:00,
2013-02-02 12:24:00,19.9,14.2,29.93,South,169,7.2,7.2,78,0.00,,---,0.00,VWS V14.01,2013-02-02 17:24:00,
2013-02-02 12:29:00,20.1,14.4,29.93,SSW,208,7.2,9.8,78,0.00,,---,0.00,VWS V14.01,2013-02-02 17:29:00,
2013-02-02 12:34:00,20.1,14.4,29.93,SW,234,6.3,9.8,78,0.00,,---,0.00,VWS V14.01,2013-02-02 17:34:00,
2013-02-02 12:39:00,20.1,14.4,29.93,South,189,5.4,5.4,78,0.00,,---,0.00,VWS V14.01,2013-02-02 17:39:00,
2013-02-02 12:44:00,20.3,14.6,29.93,South,187,8.1,8.1,78,0.00,,---,0.00,VWS V14.01,2013-02-02 17:44:00,
2013-02-02 12:49:00,20.3,14.6,29.93,SSW,202,5.4,5.4,78,0.00,,---,0.00,VWS V14.01,2013-02-02 17:49:00,
2013-02-02 12:54:00,20.3,14.3,29.93,SSW,195,0.0,0.0,77,0.00,,---,0.00,VWS V14.01,2013-02-02 17:54:00,
2013-02-02 12:59:00,20.3,14.3,29.93,SSE,164,7.2,8.1,77,0.00,,---,0.00,VWS V14.01,2013-02-02 17:59:00,
2013-02-02 13:04:00,20.5,14.4,29.93,South,184,9.8,9.8,77,0.00,,---,0.00,VWS V14.01,2013-02-02 18:04:00,
2013-02-02 13:09:00,20.5,14.7,29.93,WSW,237,12.5,12.5,78,0.00,,---,0.00,VWS V14.01,2013-02-02 18:09:00,
2013-02-02 13:15:00,20.5,14.4,29.93,SW,231,5.4,8.1,77,0.00,,---,0.00,VWS V14.01,2013-02-02 18:15:00,
2013-02-02 13:20:00,20.7,14.6,29.93,SSW,201,5.4,7.2,77,0.00,,---,0.00,VWS V14.01,2013-02-02 18:20:00,
2013-02-02 13:25:00,20.7,14.6,29.93,South,179,7.2,9.8,77,0.00,,---,0.00,VWS V14.01,2013-02-02 18:25:00,
2013-02-02 13:30:00,20.7,14.6,29.93,SSE,166,8.1,8.1,77,0.00,,---,0.00,VWS V14.01,2013-02-02 18:30:00,
2013-02-02 13:35:00,20.8,15.1,29.93,SW,228,6.3,7.2,78,0.00,,---,0.00,VWS V14.01,2013-02-02 18:35:00,
2013-02-02 13:40:00,21.0,15.2,29.93,South,186,5.4,6.3,78,0.00,,---,0.00,VWS V14.01,2013-02-02 18:40:00,
2013-02-02 13:45:00,20.8,14.8,29.93,SSE,159,5.4,6.3,77,0.00,,---,0.00,VWS V14.01,2013-02-02 18:45:00,
2013-02-02 13:50:00,20.8,14.8,29.93,SSW,213,0.0,0.0,77,0.00,,---,0.00,VWS V14.01,2013-02-02 18:50:00,
2013-02-02 13:55:00,20.8,14.8,29.93,WSW,242,8.1,8.1,77,0.00,,---,0.00,VWS V14.01,2013-02-02 18:55:00,
2013-02-02 14:00:00,20.8,15.1,29.93,South,177,0.0,4.5,78,0.00,,---,0.00,VWS V14.01,2013-02-02 19:00:00,
2013-02-02 14:05:00,21.0,15.2,29.93,South,189,6.3,6.3,78,0.00,,---,0.00,VWS V14.01,2013-02-02 19:05:00,
2013-02-02 14:10:00,21.0,15.2,29.90,South,186,6.3,7.2,78,0.00,,---,0.00,VWS V14.01,2013-02-02 19:10:00,
2013-02-02 14:15:00,21.0,15.2,29.90,SW,217,8.1,8.1,78,0.00,,---,0.00,VWS V14.01,2013-02-02 19:15:00,
2013-02-02 14:20:00,21.2,15.4,29.90,SSE,147,5.4,5.4,78,0.00,,---,0.00,VWS V14.01,2013-02-02 19:20:00,
2013-02-02 14:26:00,21.2,15.4,29.90,SSE,168,6.3,7.2,78,0.00,,---,0.00,VWS V14.01,2013-02-02 19:26:00,
2013-02-02 14:31:00,21.2,15.4,29.90,South,179,5.4,5.4,78,0.00,,---,0.00,VWS V14.01,2013-02-02 19:31:00,
2013-02-02 14:36:00,21.2,15.4,29.90,SSE,166,0.0,0.0,78,0.00,,---,0.00,VWS V14.01,2013-02-02 19:36:00,
2013-02-02 14:41:00,21.2,15.4,29.90,South,180,0.0,0.0,78,0.00,,---,0.00,VWS V14.01,2013-02-02 19:41:00,
2013-02-02 14:46:00,21.2,15.4,29.90,South,182,7.2,7.2,78,0.00,,---,0.00,VWS V14.01,2013-02-02 19:46:00,
2013-02-02 14:51:00,21.2,15.4,29.90,SSE,167,5.4,6.3,78,0.00,,---,0.00,VWS V14.01,2013-02-02 19:51:00,
2013-02-02 14:56:00,21.2,15.4,29.90,South,179,7.2,7.2,78,0.00,,---,0.00,VWS V14.01,2013-02-02 19:56:00,
2013-02-02 15:01:00,21.2,15.4,29.90,South,181,4.5,5.4,78,0.00,,---,0.00,VWS V14.01,2013-02-02 20:01:00,
2013-02-02 15:06:00,21.4,15.6,29.90,South,186,0.0,0.0,78,0.00,,---,0.00,VWS V14.01,2013-02-02 20:06:00,
2013-02-02 15:11:00,21.4,15.6,29.90,South,186,0.0,0.0,78,0.00,,---,0.00,VWS V14.01,2013-02-02 20:11:00,
2013-02-02 15:16:00,21.4,15.6,29.90,South,179,0.0,0.0,78,0.00,,---,0.00,VWS V14.01,2013-02-02 20:16:00,
2013-02-02 15:21:00,21.4,15.6,29.90,South,185,0.0,0.0,78,0.00,,---,0.00,VWS V14.01,2013-02-02 20:21:00,
2013-02-02 15:26:00,21.6,15.8,29.90,South,185,0.0,0.0,78,0.00,,---,0.00,VWS V14.01,2013-02-02 20:26:00,
2013-02-02 15:32:00,21.7,15.9,29.90,South,185,0.0,0.0,78,0.00,,---,0.00,VWS V14.01,2013-02-02 20:32:00,
2013-02-02 15:37:00,21.7,15.9,29.93,South,185,0.0,0.0,78,0.00,,---,0.00,VWS V14.01,2013-02-02 20:37:00,
2013-02-02 15:42:00,21.7,15.9,29.93,South,185,0.0,0.0,78,0.00,,---,0.00,VWS V14.01,2013-02-02 20:42:00,
2013-02-02 15:47:00,21.7,15.9,29.93,WNW,293,7.2,8.1,78,0.00,,---,0.00,VWS V14.01,2013-02-02 20:47:00,
2013-02-02 15:52:00,21.9,16.1,29.93,NNW,331,9.8,9.8,78,0.00,,---,0.00,VWS V14.01,2013-02-02 20:52:00,
2013-02-02 15:57:00,21.7,15.9,29.93,NW,313,12.5,15.2,78,0.00,,---,0.00,VWS V14.01,2013-02-02 20:57:00,
2013-02-02 16:02:00,21.7,16.2,29.93,NNW,333,11.6,11.6,79,0.00,,---,0.00,VWS V14.01,2013-02-02 21:02:00,
2013-02-02 16:07:00,21.4,15.9,29.93,NNW,341,7.2,7.2,79,0.00,,---,0.00,VWS V14.01,2013-02-02 21:07:00,
2013-02-02 16:12:00,21.4,15.9,29.93,NNW,347,8.1,16.1,79,0.00,,---,0.00,VWS V14.01,2013-02-02 21:12:00,
2013-02-02 16:17:00,21.2,15.7,29.93,NNW,343,11.6,12.5,79,0.00,,---,0.00,VWS V14.01,2013-02-02 21:17:00,
2013-02-02 16:22:00,21.0,15.5,29.93,NNW,342,16.6,16.6,79,0.00,,---,0.00,VWS V14.01,2013-02-02 21:22:00,
2013-02-02 16:28:00,20.7,15.2,29.93,NNW,347,8.1,11.6,79,0.00,,---,0.00,VWS V14.01,2013-02-02 21:28:00,
2013-02-02 16:33:00,20.5,15.0,29.93,NNW,333,12.5,12.5,79,0.00,,---,0.00,VWS V14.01,2013-02-02 21:33:00,
2013-02-02 16:38:00,20.3,14.6,29.93,NNW,343,12.5,12.5,78,0.00,,---,0.00,VWS V14.01,2013-02-02 21:38:00,
2013-02-02 16:43:00,20.3,14.6,29.93,NNW,333,6.3,12.5,78,0.00,,---,0.00,VWS V14.01,2013-02-02 21:43:00,
2013-02-02 16:48:00,20.1,14.4,29.93,NW,322,12.5,12.5,78,0.00,,---,0.00,VWS V14.01,2013-02-02 21:48:00,
2013-02-02 16:53:00,19.9,14.5,29.93,NW,311,14.3,20.1,79,0.00,,---,0.00,VWS V14.01,2013-02-02 21:53:00,
2013-02-02 16:58:00,19.9,14.5,29.93,NNW,345,7.2,7.2,79,0.00,,---,0.00,VWS V14.01,2013-02-02 21:58:00,
2013-02-02 17:03:00,19.6,14.1,29.93,North,3,16.1,16.6,79,0.00,,---,0.00,VWS V14.01,2013-02-02 22:03:00,
2013-02-02 17:08:00,19.4,14.0,29.93,NW,312,11.6,11.6,79,0.00,,---,0.00,VWS V14.01,2013-02-02 22:08:00,
2013-02-02 17:13:00,19.4,14.0,29.93,NW,321,10.7,12.5,79,0.00,,---,0.00,VWS V14.01,2013-02-02 22:13:00,
2013-02-02 17:18:00,19.2,13.8,29.93,NNW,339,10.7,10.7,79,0.00,,---,0.00,VWS V14.01,2013-02-02 22:18:00,
2013-02-02 17:24:00,19.0,13.6,29.93,NW,326,8.1,8.1,79,0.00,,---,0.00,VWS V14.01,2013-02-02 22:24:00,
2013-02-02 17:29:00,19.0,13.6,29.93,NNW,328,6.3,8.1,79,0.00,,---,0.00,VWS V14.01,2013-02-02 22:29:00,
2013-02-02 17:34:00,19.0,13.6,29.93,NNW,327,9.8,12.5,79,0.00,,---,0.00,VWS V14.01,2013-02-02 22:34:00,
2013-02-02 17:39:00,18.9,13.4,29.96,NNW,342,8.1,10.7,79,0.00,,---,0.00,VWS V14.01,2013-02-02 22:39:00,
2013-02-02 17:44:00,18.7,13.3,29.96,NNW,346,10.7,10.7,79,0.00,,---,0.00,VWS V14.01,2013-02-02 22:44:00,
2013-02-02 17:49:00,18.7,13.3,29.96,NW,324,10.7,10.7,79,0.00,,---,0.00,VWS V14.01,2013-02-02 22:49:00,
2013-02-02 17:54:00,18.5,13.1,29.96,NNW,348,12.5,12.5,79,0.00,,---,0.00,VWS V14.01,2013-02-02 22:54:00,
2013-02-02 17:59:00,18.5,13.1,29.96,NNW,345,9.8,9.8,79,0.00,,---,0.00,VWS V14.01,2013-02-02 22:59:00,
2013-02-02 18:04:00,18.3,12.9,29.96,North,1,6.3,12.5,79,0.00,,---,0.00,VWS V14.01,2013-02-02 23:04:00,
2013-02-02 18:09:00,18.3,12.9,29.96,NNW,331,8.1,8.1,79,0.00,,---,0.00,VWS V14.01,2013-02-02 23:09:00,
2013-02-02 18:14:00,18.3,12.9,29.96,NNW,327,8.1,9.8,79,0.00,,---,0.00,VWS V14.01,2013-02-02 23:14:00,
2013-02-02 18:19:00,18.3,12.9,29.96,North,358,10.7,10.7,79,0.00,,---,0.00,VWS V14.01,2013-02-02 23:19:00,
2013-02-02 18:25:00,18.3,12.9,29.96,NNW,343,10.7,13.4,79,0.00,,---,0.00,VWS V14.01,2013-02-02 23:25:00,
2013-02-02 18:30:00,18.1,12.7,29.96,NNW,342,11.6,11.6,79,0.00,,---,0.00,VWS V14.01,2013-02-02 23:30:00,
2013-02-02 18:35:00,18.1,12.7,29.96,North,4,8.1,8.1,79,0.00,,---,0.00,VWS V14.01,2013-02-02 23:35:00,
2013-02-02 18:40:00,18.0,12.3,29.96,NNW,329,9.8,12.5,78,0.00,,---,0.00,VWS V14.01,2013-02-02 23:40:00,
2013-02-02 18:45:00,17.8,12.1,29.96,NNW,327,8.1,11.6,78,0.00,,---,0.00,VWS V14.01,2013-02-02 23:45:00,
2013-02-02 18:50:00,17.8,12.1,29.96,NNW,336,7.2,7.2,78,0.00,,---,0.00,VWS V14.01,2013-02-02 23:50:00,
2013-02-02 18:55:00,17.8,12.1,29.96,North,358,16.6,16.6,78,0.00,,---,0.00,VWS V14.01,2013-02-02 23:55:00,
2013-02-02 19:00:00,17.6,11.9,29.96,NW,316,16.6,17.4,78,0.00,,---,0.00,VWS V14.01,2013-02-03 00:00:00,
2013-02-02 19:05:00,17.6,11.6,29.96,NNW,340,8.1,8.1,77,0.00,,---,0.00,VWS V14.01,2013-02-03 00:05:00,
2013-02-02 19:10:00,17.6,11.3,29.96,NW,312,8.1,11.6,76,0.00,,---,0.00,VWS V14.01,2013-02-03 00:10:00,
2013-02-02 19:15:00,17.4,11.2,29.96,NW,320,10.7,11.6,76,0.00,,---,0.00,VWS V14.01,2013-02-03 00:15:00,
2013-02-02 19:20:00,17.2,11.0,29.96,NNW,340,16.1,17.4,76,0.00,,---,0.00,VWS V14.01,2013-02-03 00:20:00,
2013-02-02 19:25:00,17.1,10.5,29.99,NW,317,16.6,16.6,75,0.00,,---,0.00,VWS V14.01,2013-02-03 00:25:00,
2013-02-02 19:30:00,16.7,10.2,29.99,NW,325,11.6,16.6,75,0.00,,---,0.00,VWS V14.01,2013-02-03 00:30:00,
2013-02-02 19:35:00,16.3,9.8,29.99,NNW,341,10.7,11.6,75,0.00,,---,0.00,VWS V14.01,2013-02-03 00:35:00,
2013-02-02 19:41:00,16.0,9.5,29.99,North,349,12.5,16.1,75,0.00,,---,0.00,VWS V14.01,2013-02-03 00:41:00,
2013-02-02 19:46:00,15.6,9.1,29.99,NNW,328,10.7,13.4,75,0.00,,---,0.00,VWS V14.01,2013-02-03 00:46:00,
2013-02-02 19:51:00,15.1,8.3,29.99,NW,318,15.2,17.4,74,0.00,,---,0.00,VWS V14.01,2013-02-03 00:51:00,
2013-02-02 19:56:00,14.9,8.1,29.99,NNW,339,8.9,16.1,74,0.00,,---,0.00,VWS V14.01,2013-02-03 00:56:00,
2013-02-02 20:01:00,14.7,7.7,29.99,NNW,343,11.6,15.2,73,0.00,,---,0.00,VWS V14.01,2013-02-03 01:01:00,
2013-02-02 20:06:00,14.5,7.5,29.99,NNE,14,15.2,17.4,73,0.00,,---,0.00,VWS V14.01,2013-02-03 01:06:00,
2013-02-02 20:11:00,14.4,7.0,29.99,NNW,346,7.2,8.1,72,0.00,,---,0.00,VWS V14.01,2013-02-03 01:11:00,
2013-02-02 20:16:00,14.2,6.8,29.99,North,352,11.6,15.2,72,0.00,,---,0.00,VWS V14.01,2013-02-03 01:16:00,
2013-02-02 20:21:00,13.8,6.5,29.99,NNW,340,11.6,11.6,72,0.00,,---,0.00,VWS V14.01,2013-02-03 01:21:00,
2013-02-02 20:26:00,13.5,6.1,29.99,NNW,342,11.6,15.2,72,0.00,,---,0.00,VWS V14.01,2013-02-03 01:26:00,
2013-02-02 20:31:00,13.5,6.1,29.99,NW,320,10.7,11.6,72,0.00,,---,0.00,VWS V14.01,2013-02-03 01:31:00,
2013-02-02 20:36:00,13.3,6.0,29.99,NNE,21,11.6,11.6,72,0.00,,---,0.00,VWS V14.01,2013-02-03 01:36:00,
2013-02-02 20:42:00,13.1,5.8,29.99,NNW,344,7.2,8.1,72,0.00,,---,0.00,VWS V14.01,2013-02-03 01:42:00,
2013-02-02 20:46:00,12.9,5.6,29.99,NNW,339,5.4,8.1,72,0.00,,---,0.00,VWS V14.01,2013-02-03 01:46:00,
2013-02-02 20:52:00,12.7,5.4,29.99,NNW,343,14.3,14.3,72,0.00,,---,0.00,VWS V14.01,2013-02-03 01:52:00,
2013-02-02 20:57:00,12.6,5.3,29.99,NNW,346,10.7,10.7,72,0.00,,---,0.00,VWS V14.01,2013-02-03 01:57:00,
2013-02-02 21:02:00,12.6,5.3,29.99,NNW,345,12.5,12.5,72,0.00,,---,0.00,VWS V14.01,2013-02-03 02:02:00,
2013-02-02 21:07:00,12.4,5.1,29.99,North,356,7.2,8.1,72,0.00,,---,0.00,VWS V14.01,2013-02-03 02:07:00,
2013-02-02 21:12:00,12.4,5.1,29.99,North,355,5.4,8.1,72,0.00,,---,0.00,VWS V14.01,2013-02-03 02:12:00,
2013-02-02 21:17:00,12.2,4.9,29.99,North,353,5.4,5.4,72,0.00,,---,0.00,VWS V14.01,2013-02-03 02:17:00,
2013-02-02 21:22:00,12.2,4.9,29.99,NNW,335,6.3,7.2,72,0.00,,---,0.00,VWS V14.01,2013-02-03 02:22:00,
2013-02-02 21:27:00,12.0,4.7,29.99,NNW,343,7.2,9.8,72,0.00,,---,0.00,VWS V14.01,2013-02-03 02:27:00,
2013-02-02 21:33:00,12.0,4.7,29.99,North,351,8.1,8.1,72,0.00,,---,0.00,VWS V14.01,2013-02-03 02:33:00,
2013-02-02 21:38:00,11.8,4.6,29.99,NNW,332,4.5,5.4,72,0.00,,---,0.00,VWS V14.01,2013-02-03 02:38:00,
2013-02-02 21:43:00,11.8,4.6,29.99,NNW,341,9.8,9.8,72,0.00,,---,0.00,VWS V14.01,2013-02-03 02:43:00,
2013-02-02 21:48:00,11.7,4.4,29.99,North,356,6.3,7.2,72,0.00,,---,0.00,VWS V14.01,2013-02-03 02:48:00,
2013-02-02 21:53:00,11.5,4.2,29.99,NW,311,7.2,7.2,72,0.00,,---,0.00,VWS V14.01,2013-02-03 02:53:00,
2013-02-02 21:58:00,11.3,4.1,29.99,NW,324,6.3,9.8,72,0.00,,---,0.00,VWS V14.01,2013-02-03 02:58:00,
2013-02-02 22:03:00,11.3,4.1,29.99,NNW,346,9.8,11.6,72,0.00,,---,0.00,VWS V14.01,2013-02-03 03:03:00,
2013-02-02 22:08:00,11.3,4.1,29.99,North,356,9.8,9.8,72,0.00,,---,0.00,VWS V14.01,2013-02-03 03:08:00,
2013-02-02 22:13:00,11.1,3.9,29.99,NNW,334,7.2,7.2,72,0.00,,---,0.00,VWS V14.01,2013-02-03 03:13:00,
2013-02-02 22:18:00,11.1,3.9,29.99,North,353,7.2,7.2,72,0.00,,---,0.00,VWS V14.01,2013-02-03 03:18:00,
2013-02-02 22:23:00,10.9,3.7,29.99,North,351,8.1,8.1,72,0.00,,---,0.00,VWS V14.01,2013-02-03 03:23:00,
2013-02-02 22:28:00,10.9,3.7,29.99,NNW,347,6.3,6.3,72,0.00,,---,0.00,VWS V14.01,2013-02-03 03:28:00,
2013-02-02 22:34:00,10.9,3.7,29.99,NNW,346,5.4,5.4,72,0.00,,---,0.00,VWS V14.01,2013-02-03 03:34:00,
2013-02-02 22:39:00,10.8,3.5,29.99,NNW,332,6.3,6.3,72,0.00,,---,0.00,VWS V14.01,2013-02-03 03:39:00,
2013-02-02 22:44:00,10.9,3.7,29.99,NNW,339,7.2,8.1,72,0.00,,---,0.00,VWS V14.01,2013-02-03 03:44:00,
2013-02-02 22:49:00,10.9,3.7,29.99,NNW,330,5.4,8.1,72,0.00,,---,0.00,VWS V14.01,2013-02-03 03:49:00,
2013-02-02 22:54:00,10.9,3.7,29.99,NNW,333,7.2,7.2,72,0.00,,---,0.00,VWS V14.01,2013-02-03 03:54:00,
2013-02-02 22:59:00,10.9,3.7,29.99,NW,325,4.5,8.1,72,0.00,,---,0.00,VWS V14.01,2013-02-03 03:59:00,
2013-02-02 23:04:00,10.9,3.7,29.99,NNW,330,7.2,7.2,72,0.00,,---,0.00,VWS V14.01,2013-02-03 04:04:00,
2013-02-02 23:09:00,10.9,3.7,29.99,NNW,336,7.2,7.2,72,0.00,,---,0.00,VWS V14.01,2013-02-03 04:09:00,
2013-02-02 23:14:00,10.9,3.7,29.99,NNW,328,5.4,6.3,72,0.00,,---,0.00,VWS V14.01,2013-02-03 04:14:00,
2013-02-02 23:19:00,10.9,3.7,29.99,NNW,332,7.2,7.2,72,0.00,,---,0.00,VWS V14.01,2013-02-03 04:19:00,
2013-02-02 23:24:00,10.8,3.5,29.99,NNW,331,9.8,9.8,72,0.00,,---,0.00,VWS V14.01,2013-02-03 04:24:00,
2013-02-02 23:29:00,10.8,3.5,29.99,NNW,333,7.2,7.2,72,0.00,,---,0.00,VWS V14.01,2013-02-03 04:29:00,
2013-02-02 23:35:00,10.4,3.2,29.99,NW,325,6.3,9.8,72,0.00,,---,0.00,VWS V14.01,2013-02-03 04:35:00,
2013-02-02 23:40:00,10.4,3.2,29.99,NNW,328,7.2,7.2,72,0.00,,---,0.00,VWS V14.01,2013-02-03 04:40:00,
2013-02-02 23:45:00,10.2,3.0,29.99,NW,326,8.1,8.1,72,0.00,,---,0.00,VWS V14.01,2013-02-03 04:45:00,
2013-02-02 23:50:00,10.0,2.8,29.99,NNW,327,5.4,5.4,72,0.00,,---,0.00,VWS V14.01,2013-02-03 04:50:00,
2013-02-02 23:55:00,9.7,2.5,29.99,NNW,327,5.4,5.4,72,0.00,,---,0.00,VWS V14.01,2013-02-03 04:55:00,